sat.trackr.live / text

‹ back to catalog

STARLINK-3129

NORAD 49453 · 2021-104AX

PAYLOAD ACTIVE UNKNOWN

§ Identity

Operator
Country
US
Launch date
2021-11-13
Launch site
AFETR
Launch vehicle
Mass (kg)
RCS (m²)

Purposes: comms

External: N2YO · Heavens-Above · Gunter

§ Orbital elements

Epoch: 2026-09-20T01:37:10.077600Z

Period
94.01 min
Inclination
53.1616°
Eccentricity
0.0001090
Mean motion
15.31698463 rev/d
Perigee alt
470.0 km
Apogee alt
471.5 km
Semi-major
6,848.9 km
B*
9.9231e-6
RAAN
50.9422°
Arg perigee
98.6801°
Mean anomaly
261.4324°
Rev number
26,833

§ Raw data

STARLINK-31291 49453U 21104AX  26263.06747775 -.00000057  00000+0  99231-5 0  99962 49453  53.1616  50.9422 0001090  98.6801 261.4324 15.31698463268333

JSON: /api/v1/satellites/49453 · /tle

For live sub-satellite position, see the globe view (requires WebGL).

§ Visibility from observer

Set your observer location to see the next 7 days of passes ≥ 10°. The values pass through the URL so the page stays shareable.

No JS? Fill the form by hand. The geolocation button needs JavaScript.